Tracking 29892 objects as of 21-Nov-2024
HD Live streaming from Space Station
objects crossing your sky now

DELTA 1 DEB

Track DELTA 1 DEB now!
10-day predictions


NORAD ID: 10714
Int'l Code: 1976-077AK
Perigee: 1,431.3 km
Apogee: 2,377.0 km
Inclination: 103.4 °
Period: 124.9 minutes
Semi major axis: 8275 km
RCS: 0.13 m2 (medium)
Launch date: July 29, 1976
Source: United States (US)
Launch site: AIR FORCE WESTERN TEST RANGE (AFWTR)

Note: This is SATELLITE DEBRIS
Your satellite tracking list
Your tracking list is empty




NASA's NSSDC Master Catalog

Two Line Element Set (TLE):
1 10714U 76077AK  24325.65273444  .00003731  00000-0  55012-1 0  9999
2 10714 103.3616 251.2803 0571371 104.0922  14.0602 11.53291251 26874
Source of the keplerian elements: AFSPC